Terug naar catalogus

CZ-6A DEB

ActiefPO
NORAD 61463·DEBRIS·🇨🇳 China

Gelanceerd Aug 6, 2024 vanaf Taiyuan Satellite Launch Center

Loading…

Volgende Passages (komende 24 uur)

TLE

VersSource: Space-Track

Epoch: Sep 14, 2026, 11:30 UTC

1 61463U 24140ZV  26257.47922929  .00001434  00000-0  63300-3 0  9994
2 61463  89.0046 265.3031 0047690 252.9369 106.6595 14.22242849103397

Volg CZ-6A DEB in realtime met AllMySat

Download on the App Store